| time (UTC) | temp F | wind direction | speed MPH | gust MPH | rain 1hr in | rain 24hr in | rain mn in | humidity % | barometer mb |
| 20260505052533 | 58 | 137 | 2.0 | 3.0 | 0.00 | 0.00 | 0.00 | 71 | 1010.8 |
| 20260505052031 | 58 | 194 | 1.0 | 2.0 | 0.00 | 0.00 | 0.00 | 71 | 1010.7 |
| 20260505051527 | 59 | 142 | 1.0 | 2.0 | 0.00 | 0.00 | 0.00 | 70 | 1010.8 |
| 20260505051026 | 59 | 142 | 0.0 | 1.0 | 0.00 | 0.00 | 0.00 | 69 | 1010.7 |
| 20260505050524 | 59 | 142 | 2.0 | 2.0 | 0.00 | 0.00 | 0.00 | 69 | 1010.7 |
| 20260505041451 | 59 | 176 | 2.0 | 3.0 | 0.00 | 0.00 | 0.00 | 66 | 1011.2 |
| 20260505040948 | 59 | 167 | 2.0 | 4.0 | 0.00 | 0.00 | 0.00 | 66 | 1011.1 |
| 20260505040446 | 59 | 151 | 1.0 | 3.0 | 0.00 | 0.00 | 0.00 | 66 | 1011.2 |
| 20260505035943 | 59 | 179 | 0.0 | 2.0 | 0.00 | 0.00 | 0.00 | 65 | 1011.0 |
| 20260505035438 | 59 | 160 | 1.0 | 4.0 | 0.00 | 0.00 | 0.00 | 65 | 1011.1 |
| 20260505034936 | 59 | 147 | 1.0 | 2.0 | 0.00 | 0.00 | 0.00 | 65 | 1011.1 |
| 20260505034432 | 59 | 172 | 1.0 | 3.0 | 0.00 | 0.00 | 0.00 | 65 | 1011.1 |
| 20260505033930 | 59 | 151 | 2.0 | 2.0 | 0.00 | 0.00 | 0.00 | 65 | 1011.3 |
| 20260505033426 | 59 | 157 | 3.0 | 3.0 | 0.00 | 0.00 | 0.00 | 65 | 1011.2 |
| 20260505032924 | 59 | 196 | 2.0 | 2.0 | 0.00 | 0.00 | 0.00 | 65 | 1011.2 |
| 20260505032421 | 59 | 141 | 1.0 | 3.0 | 0.00 | 0.00 | 0.00 | 66 | 1011.3 |
| 20260505031918 | 59 | 146 | 1.0 | 3.0 | 0.00 | 0.00 | 0.00 | 66 | 1011.3 |
| 20260505031415 | 59 | 146 | 2.0 | 2.0 | 0.00 | 0.00 | 0.00 | 66 | 1011.4 |
| 20260505030912 | 59 | 147 | 2.0 | 2.0 | 0.00 | 0.00 | 0.00 | 66 | 1011.4 |
| 20260505030407 | 59 | 160 | 0.0 | 1.0 | 0.00 | 0.00 | 0.00 | 66 | 1011.5 |
| 20260505025903 | 59 | 160 | 0.0 | 2.0 | 0.00 | 0.00 | 0.00 | 66 | 1011.5 |
| 20260505025401 | 59 | 160 | 1.0 | 1.0 | 0.00 | 0.00 | 0.00 | 66 | 1011.5 |
| 20260505024900 | 59 | 165 | 0.0 | 0.0 | 0.00 | 0.00 | 0.00 | 66 | 1011.5 |
| 20260505024357 | 59 | 158 | 0.0 | 2.0 | 0.00 | 0.00 | 0.00 | 65 | 1011.3 |
| 20260505023853 | 59 | 162 | 1.0 | 2.0 | 0.00 | 0.00 | 0.00 | 65 | 1011.5 |
| 20260505023350 | 59 | 169 | 1.0 | 2.0 | 0.00 | 0.00 | 0.00 | 65 | 1011.5 |
| 20260505022848 | 59 | 167 | 0.0 | 1.0 | 0.00 | 0.00 | 0.00 | 65 | 1011.4 |
| 20260505022344 | 59 | 158 | 0.0 | 1.0 | 0.00 | 0.00 | 0.00 | 65 | 1011.5 |
| 20260505021842 | 59 | 157 | 1.0 | 2.0 | 0.00 | 0.00 | 0.00 | 64 | 1011.6 |
| 20260505021338 | 59 | 148 | 2.0 | 2.0 | 0.00 | 0.00 | 0.00 | 64 | 1011.7 |
| 20260505020834 | 60 | 161 | 0.0 | 2.0 | 0.00 | 0.00 | 0.00 | 64 | 1011.6 |
| 20260505020330 | 60 | 185 | 1.0 | 2.0 | 0.00 | 0.00 | 0.00 | 64 | 1011.6 |
| 20260505015827 | 60 | 158 | 1.0 | 2.0 | 0.00 | 0.00 | 0.00 | 64 | 1011.7 |
| 20260505015324 | 60 | 165 | 1.0 | 1.0 | 0.00 | 0.00 | 0.00 | 64 | 1011.5 |
| 20260505014821 | 60 | 211 | 1.0 | 2.0 | 0.00 | 0.00 | 0.00 | 63 | 1011.7 |
| 20260505014318 | 60 | 169 | 0.0 | 6.0 | 0.00 | 0.00 | 0.00 | 62 | 1011.7 |
| 20260505013815 | 60 | 153 | 3.0 | 4.0 | 0.00 | 0.00 | 0.00 | 62 | 1011.6 |
| 20260505013312 | 60 | 217 | 3.0 | 3.0 | 0.00 | 0.00 | 0.00 | 61 | 1011.5 |
| 20260505012810 | 61 | 151 | 2.0 | 3.0 | 0.00 | 0.00 | 0.00 | 61 | 1011.5 |
| 20260505012308 | 61 | 163 | 3.0 | 4.0 | 0.00 | 0.00 | 0.00 | 60 | 1011.5 |
| 20260505011803 | 61 | 147 | 3.0 | 7.0 | 0.00 | 0.00 | 0.00 | 59 | 1011.3 |
| 20260505011301 | 61 | 148 | 1.0 | 3.0 | 0.00 | 0.00 | 0.00 | 59 | 1011.3 |
| 20260505010756 | 61 | 156 | 1.0 | 2.0 | 0.00 | 0.00 | 0.00 | 57 | 1011.2 |
| 20260505010252 | 62 | 158 | 2.0 | 4.0 | 0.00 | 0.00 | 0.00 | 56 | 1011.2 |
| 20260505005749 | 62 | 151 | 1.0 | 3.0 | 0.00 | 0.00 | 0.00 | 54 | 1011.3 |
| 20260505005246 | 62 | 161 | 3.0 | 3.0 | 0.00 | 0.00 | 0.00 | 54 | 1011.3 |
| 20260505004743 | 62 | 155 | 1.0 | 2.0 | 0.00 | 0.00 | 0.00 | 53 | 1011.1 |
| 20260505004239 | 63 | 150 | 2.0 | 2.0 | 0.00 | 0.00 | 0.00 | 53 | 1010.9 |
| 20260505003736 | 63 | 156 | 1.0 | 3.0 | 0.00 | 0.00 | 0.00 | 52 | 1011.0 |
| 20260505003234 | 63 | 157 | 1.0 | 3.0 | 0.00 | 0.00 | 0.00 | 52 | 1010.9 |
| 20260505002730 | 64 | 161 | 0.0 | 2.0 | 0.00 | 0.00 | 0.00 | 51 | 1010.9 |
| 20260505002228 | 64 | 160 | 2.0 | 3.0 | 0.00 | 0.00 | 0.00 | 51 | 1010.8 |
| 20260505001725 | 64 | 154 | 1.0 | 1.0 | 0.00 | 0.00 | 0.00 | 50 | 1010.7 |
| 20260505001223 | 65 | 171 | 0.0 | 3.0 | 0.00 | 0.00 | 0.00 | 49 | 1010.6 |
| 20260505000720 | 65 | 145 | 1.0 | 3.0 | 0.00 | 0.00 | 0.00 | 49 | 1010.6 |
| 20260505000218 | 65 | 150 | 3.0 | 6.0 | 0.00 | 0.00 | 0.00 | 48 | 1010.2 |
| 20260504235714 | 66 | 155 | 2.0 | 3.0 | 0.00 | 0.00 | 0.00 | 48 | 1010.4 |
| 20260504235210 | 66 | 159 | 2.0 | 7.0 | 0.00 | 0.00 | 0.00 | 48 | 1010.3 |
| 20260504234707 | 66 | 161 | 1.0 | 4.0 | 0.00 | 0.00 | 0.00 | 47 | 1010.2 |
| 20260504234204 | 66 | 160 | 0.0 | 4.0 | 0.00 | 0.00 | 0.00 | 47 | 1010.1 |
| 20260504233700 | 67 | 153 | 4.0 | 4.0 | 0.00 | 0.00 | 0.00 | 46 | 1010.1 |
| 20260504233156 | 67 | 196 | 3.0 | 7.0 | 0.00 | 0.00 | 0.00 | 45 | 1010.2 |
| 20260504232654 | 68 | 137 | 2.0 | 4.0 | 0.00 | 0.00 | 0.00 | 45 | 1010.2 |
| 20260504232151 | 68 | 146 | 1.0 | 7.0 | 0.00 | 0.00 | 0.00 | 45 | 1010.1 |
| 20260504231648 | 68 | 131 | 6.0 | 9.0 | 0.00 | 0.00 | 0.00 | 45 | 1010.1 |
| 20260504231144 | 68 | 156 | 3.0 | 4.0 | 0.00 | 0.00 | 0.00 | 44 | 1010.0 |
| 20260504230640 | 69 | 185 | 2.0 | 3.0 | 0.00 | 0.00 | 0.00 | 43 | 1009.9 |
| 20260504230139 | 71 | 215 | 2.0 | 7.0 | 0.00 | 0.00 | 0.00 | 40 | 1010.0 |
| 20260504225637 | 71 | 151 | 1.0 | 2.0 | 0.00 | 0.00 | 0.00 | 33 | 1009.9 |
| 20260504225133 | 71 | 138 | 3.0 | 4.0 | 0.00 | 0.00 | 0.00 | 32 | 1009.8 |
| 20260504224630 | 71 | 133 | 1.0 | 4.0 | 0.00 | 0.00 | 0.00 | 32 | 1009.8 |
| 20260504224126 | 72 | 226 | 0.0 | 1.0 | 0.00 | 0.00 | 0.00 | 31 | 1009.8 |
| 20260504223624 | 72 | 156 | 0.0 | 3.0 | 0.00 | 0.00 | 0.00 | 31 | 1009.7 |
| 20260504223119 | 72 | 197 | 2.0 | 6.0 | 0.00 | 0.00 | 0.00 | 31 | 1009.7 |
| 20260504222616 | 72 | 141 | 0.0 | 2.0 | 0.00 | 0.00 | 0.00 | 31 | 1009.5 |
| 20260504222114 | 73 | 275 | 1.0 | 2.0 | 0.00 | 0.00 | 0.00 | 31 | 1009.4 |
| 20260504221611 | 73 | 142 | 2.0 | 4.0 | 0.00 | 0.00 | 0.00 | 31 | 1009.5 |
| 20260504221108 | 73 | 163 | 0.0 | 2.0 | 0.00 | 0.00 | 0.00 | 30 | 1009.7 |
| 20260504220604 | 73 | 186 | 0.0 | 2.0 | 0.00 | 0.00 | 0.00 | 30 | 1009.6 |
| 20260504215557 | 74 | 235 | 1.0 | 2.0 | 0.00 | 0.00 | 0.00 | 29 | 1009.8 |
| 20260504215055 | 74 | 172 | 1.0 | 6.0 | 0.00 | 0.00 | 0.00 | 29 | 1009.6 |
| 20260504214551 | 75 | 138 | 2.0 | 2.0 | 0.00 | 0.00 | 0.00 | 29 | 1009.6 |
| 20260504214047 | 76 | 168 | 0.0 | 1.0 | 0.00 | 0.00 | 0.00 | 29 | 1009.6 |
| 20260504213544 | 75 | 172 | 0.0 | 1.0 | 0.00 | 0.00 | 0.00 | 29 | 1009.7 |
| 20260504213041 | 75 | 202 | 1.0 | 2.0 | 0.00 | 0.00 | 0.00 | 28 | 1009.8 |
| 20260504212537 | 76 | 229 | 1.0 | 2.0 | 0.00 | 0.00 | 0.00 | 27 | 1009.8 |
| 20260504212034 | 75 | 329 | 1.0 | 2.0 | 0.00 | 0.00 | 0.00 | 29 | 1009.9 |
| 20260504211531 | 75 | 208 | 1.0 | 3.0 | 0.00 | 0.00 | 0.00 | 28 | 1010.0 |
| 20260504211028 | 75 | 308 | 2.0 | 3.0 | 0.00 | 0.00 | 0.00 | 28 | 1009.9 |
| 20260504210525 | 76 | 245 | 1.0 | 3.0 | 0.00 | 0.00 | 0.00 | 28 | 1009.9 |
| 20260504210022 | 76 | 283 | 2.0 | 6.0 | 0.00 | 0.00 | 0.00 | 28 | 1010.0 |
| 20260504205520 | 76 | 228 | 0.0 | 2.0 | 0.00 | 0.00 | 0.00 | 28 | 1009.8 |
| 20260504205018 | 77 | 256 | 2.0 | 8.0 | 0.00 | 0.00 | 0.00 | 27 | 1009.8 |
| 20260504204515 | 76 | 233 | 1.0 | 2.0 | 0.00 | 0.00 | 0.00 | 27 | 1009.7 |
| 20260504204014 | 76 | 320 | 4.0 | 4.0 | 0.00 | 0.00 | 0.00 | 27 | 1009.6 |
| 20260504203512 | 76 | 194 | 1.0 | 6.0 | 0.00 | 0.00 | 0.00 | 27 | 1009.8 |
| 20260504203009 | 76 | 223 | 0.0 | 4.0 | 0.00 | 0.00 | 0.00 | 27 | 1009.7 |
| 20260504202504 | 76 | 135 | 1.0 | 3.0 | 0.00 | 0.00 | 0.00 | 28 | 1009.7 |
| 20260504202001 | 77 | 183 | 1.0 | 3.0 | 0.00 | 0.00 | 0.00 | 28 | 1009.8 |
| 20260504201458 | 76 | 172 | 2.0 | 3.0 | 0.00 | 0.00 | 0.00 | 27 | 1009.7 |
| 20260504200956 | 75 | 238 | 1.0 | 2.0 | 0.00 | 0.00 | 0.00 | 28 | 1009.8 |
| 20260504200452 | 76 | 312 | 2.0 | 3.0 | 0.00 | 0.00 | 0.00 | 28 | 1009.9 |
| 20260504195949 | 76 | 305 | 1.0 | 4.0 | 0.00 | 0.00 | 0.00 | 27 | 1009.9 |
| 20260504195445 | 76 | 173 | 0.0 | 2.0 | 0.00 | 0.00 | 0.00 | 28 | 1010.2 |
| 20260504194942 | 76 | 213 | 1.0 | 2.0 | 0.00 | 0.00 | 0.00 | 28 | 1010.1 |
| 20260504194438 | 76 | 143 | 3.0 | 9.0 | 0.00 | 0.00 | 0.00 | 28 | 1010.2 |
| 20260504193934 | 76 | 106 | 1.0 | 3.0 | 0.00 | 0.00 | 0.00 | 28 | 1010.1 |
| 20260504193431 | 76 | 263 | 3.0 | 4.0 | 0.00 | 0.00 | 0.00 | 28 | 1010.5 |
| 20260504192930 | 76 | 42 | 2.0 | 4.0 | 0.00 | 0.00 | 0.00 | 28 | 1010.5 |
| 20260504192427 | 76 | 91 | 0.0 | 4.0 | 0.00 | 0.00 | 0.00 | 28 | 1010.4 |
| 20260504191926 | 76 | 258 | 1.0 | 3.0 | 0.00 | 0.00 | 0.00 | 28 | 1010.5 |
| 20260504191424 | 76 | 286 | 2.0 | 2.0 | 0.00 | 0.00 | 0.00 | 28 | 1010.5 |
| 20260504190918 | 76 | 163 | 2.0 | 6.0 | 0.00 | 0.00 | 0.00 | 30 | 1010.5 |
| 20260504190414 | 77 | 329 | 3.0 | 7.0 | 0.00 | 0.00 | 0.00 | 27 | 1010.8 |
| 20260504185911 | 76 | 55 | 2.0 | 3.0 | 0.00 | 0.00 | 0.00 | 28 | 1010.9 |
| 20260504185409 | 76 | 265 | 2.0 | 4.0 | 0.00 | 0.00 | 0.00 | 27 | 1010.9 |
| 20260504184904 | 75 | 293 | 2.0 | 3.0 | 0.00 | 0.00 | 0.00 | 30 | 1010.9 |
| 20260504184400 | 75 | 184 | 1.0 | 4.0 | 0.00 | 0.00 | 0.00 | 29 | 1011.2 |
| 20260504183856 | 75 | 216 | 2.0 | 7.0 | 0.00 | 0.00 | 0.00 | 29 | 1011.2 |
| 20260504183354 | 76 | 243 | 4.0 | 7.0 | 0.00 | 0.00 | 0.00 | 28 | 1011.2 |
| 20260504182851 | 76 | 157 | 1.0 | 2.0 | 0.00 | 0.00 | 0.00 | 28 | 1011.2 |
| 20260504182348 | 76 | 259 | 3.0 | 4.0 | 0.00 | 0.00 | 0.00 | 29 | 1011.2 |
| 20260504181845 | 76 | 164 | 1.0 | 2.0 | 0.00 | 0.00 | 0.00 | 29 | 1011.3 |
| 20260504181343 | 75 | 169 | 2.0 | 3.0 | 0.00 | 0.00 | 0.00 | 29 | 1011.3 |
| 20260504180841 | 75 | 98 | 0.0 | 2.0 | 0.00 | 0.00 | 0.00 | 29 | 1011.5 |
| 20260504180339 | 73 | 341 | 4.0 | 7.0 | 0.00 | 0.00 | 0.00 | 31 | 1011.5 |
| 20260504175837 | 74 | 155 | 3.0 | 3.0 | 0.00 | 0.00 | 0.00 | 30 | 1011.6 |
| 20260504175334 | 74 | 143 | 0.0 | 6.0 | 0.00 | 0.00 | 0.00 | 29 | 1011.7 |
| 20260504174832 | 75 | 341 | 4.0 | 7.0 | 0.00 | 0.00 | 0.00 | 29 | 1011.6 |
| 20260504174329 | 75 | 251 | 2.0 | 6.0 | 0.00 | 0.00 | 0.00 | 28 | 1011.6 |
| 20260504173826 | 74 | 182 | 1.0 | 2.0 | 0.00 | 0.00 | 0.00 | 31 | 1011.7 |
| 20260504173323 | 73 | 229 | 2.0 | 4.0 | 0.00 | 0.00 | 0.00 | 31 | 1012.0 |
| 20260504172820 | 73 | 181 | 3.0 | 9.0 | 0.00 | 0.00 | 0.00 | 31 | 1011.9 |
| 20260504172316 | 73 | 324 | 2.0 | 11.0 | 0.00 | 0.00 | 0.00 | 31 | 1012.0 |
| 20260504171812 | 74 | 137 | 1.0 | 6.0 | 0.00 | 0.00 | 0.00 | 32 | 1012.0 |
| 20260504171310 | 74 | 174 | 1.0 | 4.0 | 0.00 | 0.00 | 0.00 | 31 | 1012.2 |
| 20260504170807 | 73 | 245 | 1.0 | 4.0 | 0.00 | 0.00 | 0.00 | 31 | 1012.3 |
| 20260504170303 | 72 | 123 | 2.0 | 4.0 | 0.00 | 0.00 | 0.00 | 32 | 1012.2 |
| 20260504160222 | 72 | 237 | 3.0 | 8.0 | 0.00 | 0.00 | 0.00 | 29 | 1013.0 |
| 20260504150653 | 69 | 154 | 1.0 | 3.0 | 0.00 | 0.00 | 0.00 | 37 | 1013.6 |
| 20260504150149 | 69 | 177 | 2.0 | 6.0 | 0.00 | 0.00 | 0.00 | 37 | 1013.6 |
| 20260504141118 | 65 | 154 | 2.0 | 3.0 | 0.00 | 0.00 | 0.00 | 41 | 1013.8 |
| 20260504140615 | 65 | 175 | 7.0 | 9.0 | 0.00 | 0.00 | 0.00 | 41 | 1013.8 |
| 20260504140110 | 65 | 318 | 2.0 | 3.0 | 0.00 | 0.00 | 0.00 | 41 | 1013.9 |
| 20260504130539 | 59 | 182 | 2.0 | 2.0 | 0.00 | 0.00 | 0.00 | 52 | 1014.5 |
| 20260504110426 | 48 | 165 | 1.0 | 2.0 | 0.00 | 0.00 | 0.00 | 73 | 1015.2 |
| 20260504100343 | 44 | 192 | 0.0 | 1.0 | 0.00 | 0.00 | 0.00 | 72 | 1015.1 |
| 20260504081736 | 42 | 169 | 0.0 | 0.0 | 0.00 | 0.00 | 0.00 | 70 | 1014.8 |
| 20260504081233 | 42 | 169 | 0.0 | 0.0 | 0.00 | 0.00 | 0.00 | 70 | 1014.9 |
| 20260504080729 | 42 | 169 | 0.0 | 0.0 | 0.00 | 0.00 | 0.00 | 69 | 1014.8 |
| 20260504080226 | 42 | 169 | 0.0 | 0.0 | 0.00 | 0.00 | 0.00 | 69 | 1014.7 |
| 20260504070153 | 44 | 167 | 0.0 | 0.0 | 0.00 | 0.00 | 0.00 | 65 | 1014.5 |
| 20260504060114 | 45 | 167 | 0.0 | 0.0 | 0.00 | 0.00 | 0.00 | 61 | 1014.5 |